Weather History for KSXT - May, 2013

Change the Weather History Date:

Tuesday, May 7, 2013

  Actual Average (KMFR) Record (KMFR)
Temperature  
Mean Temperature 53 °F 58 °F  
Max Temperature 62 °F 71 °F 97 °F (1987)
Min Temperature 44 °F 44 °F 29 °F (1916)
Degree Days  
Heating Degree Days 12 8  
Month to date heating degree days 60  
Since 1 July heating degree days 4059  
Cooling Degree Days 0 1  
Month to date cooling degree days 6  
Year to date cooling degree days 9  
Growing Degree Days 3 (Base 50)    
Moisture  
Dew Point 46 °F    
Average Humidity 89    
Maximum Humidity 100    
Minimum Humidity 65    
Precipitation  
Precipitation 0.09 in 0.05 in 0.61 in (1952)
Month to date precipitation 0.31  
Year to date precipitation 7.84  
Snow  
Snow 0.00 in 0.00 in - ()
Month to date snowfall 0.0  
Since 1 July snowfall 4.1  
Snow Depth -    
Sea Level Pressure  
Sea Level Pressure 29.99 in    
Wind  
Wind Speed 5 mph (WNW)    
Max Wind Speed 10 mph    
Max Gust Speed -    
Visibility 4 miles    
Events Fog , Rain    
T = Trace of Precipitation, MM = Missing Value Source: NWS Daily Summary

Daily Weather History Graph

Daily Weather History Graph

Search for Another Location

Airport or City:

Trip Planner

Search our weather history database for the weather conditions in past years. The results will help you decide how hot, cold, wet, or windy it might be!

Date:

Astronomy

May. 07, 2013 Rise Set
Actual Time 5:59 AM PDT 8:20 PM PDT
Civil Twilight 5:28 AM PDT 8:52 PM PDT
Nautical Twilight 4:49 AM PDT 9:31 PM PDT
Astronomical Twilight 4:06 AM PDT 10:15 PM PDT
Moon 4:40 AM PDT (5/7) 6:23 PM PDT (5/7)
Length of Visible Light 15h 23m
Length of Day
14h 20m
Waning Crescent, 5% of the Moon is Illuminated
May 7
Waning Crescent
May 9
New
May 17
First Quarter
May 24
Full
May 31
Last Quarter

Hourly Weather History & Observations

Time (PDT) Temp. Windchill Dew Point Humidity Pressure Visibility Wind Dir Wind Speed Gust Speed Precip Events Conditions
12:05 AM 46.4 °F 42.4 °F 46.4 °F 100% 29.96 in 0.2 mi NNW 8.1 mph - 0.00 in Fog , Rain Light Rain
12:12 AM 46.4 °F 41.9 °F 44.6 °F 93% 29.96 in 0.2 mi NNW 9.2 mph - 0.01 in Fog , Rain Light Rain
12:20 AM 46.4 °F 41.5 °F 44.6 °F 93% 29.96 in 0.5 mi WNW 10.4 mph - 0.02 in Fog , Rain Light Rain
12:25 AM 46.4 °F 41.9 °F 44.6 °F 93% 29.96 in 1.8 mi West 9.2 mph - 0.02 in Rain Light Rain
12:27 AM 46.4 °F 42.9 °F 44.6 °F 93% 29.96 in 4.0 mi West 6.9 mph - 0.02 in Rain Light Rain
12:35 AM 46.4 °F 42.9 °F 44.6 °F 93% 29.96 in 1.8 mi Variable 6.9 mph - 0.03 in Rain Light Rain
12:38 AM 44.6 °F 39.2 °F 44.6 °F 100% 29.96 in 0.8 mi NNW 10.4 mph - 0.03 in Rain Light Rain
12:56 AM 45.0 °F 41.2 °F 44.1 °F 97% 29.91 in 0.5 mi NNW 6.9 mph - 0.03 in Fog Fog
1:12 AM 44.6 °F 39.7 °F 44.6 °F 100% 29.97 in 1.5 mi NNE 9.2 mph - N/A   Mostly Cloudy
1:19 AM 46.4 °F 42.9 °F 44.6 °F 93% 29.98 in 0.8 mi NNE 6.9 mph - N/A   Overcast
1:27 AM 44.6 °F 40.2 °F 44.6 °F 100% 29.97 in 1.8 mi North 8.1 mph - N/A   Mostly Cloudy
1:29 AM 44.6 °F 40.2 °F 44.6 °F 100% 29.97 in 3.0 mi North 8.1 mph - N/A   Mostly Cloudy
1:56 AM 46.0 °F - 44.1 °F 93% 29.90 in 10.0 mi Calm Calm - N/A   Clear
2:54 AM 46.4 °F - 44.6 °F 93% 29.97 in 1.2 mi Calm Calm - N/A   Overcast
2:56 AM 46.0 °F - 45.0 °F 96% 29.90 in 1.2 mi Calm Calm - 0.00 in Rain Light Rain
3:03 AM 46.4 °F 45.2 °F 44.6 °F 93% 29.97 in 3.0 mi North 3.5 mph - 0.00 in Rain Light Rain
3:33 AM 46.4 °F - 44.6 °F 93% 29.98 in 1.2 mi Calm Calm - 0.00 in Rain Light Rain
3:56 AM 46.0 °F 44.8 °F 45.0 °F 96% 29.91 in 0.5 mi North 3.5 mph - 0.01 in Fog , Rain Light Rain
4:03 AM 46.4 °F 45.2 °F 44.6 °F 93% 29.98 in 0.2 mi North 3.5 mph - 0.00 in Fog , Rain Light Rain
4:13 AM 46.4 °F 44.3 °F 44.6 °F 93% 29.98 in 0.5 mi North 4.6 mph - 0.00 in Fog , Rain Light Rain
4:44 AM 44.6 °F 42.2 °F 44.6 °F 100% 29.98 in 0.2 mi NNW 4.6 mph - 0.01 in Fog , Rain Light Rain
4:56 AM 45.0 °F 42.6 °F 44.1 °F 97% 29.90 in 0.2 mi NNW 4.6 mph - 0.01 in Fog , Rain Light Rain
5:42 AM 44.6 °F - 42.8 °F 93% 29.98 in 0.8 mi Calm Calm - 0.03 in   Overcast
5:56 AM 44.1 °F 42.5 °F 43.0 °F 96% 29.91 in 0.8 mi NNW 3.5 mph - 0.03 in   Overcast
6:03 AM 44.6 °F 42.2 °F 42.8 °F 93% 29.98 in 0.5 mi NW 4.6 mph - N/A Fog Fog
6:07 AM 44.6 °F 43.1 °F 42.8 °F 93% 29.98 in 0.2 mi NW 3.5 mph - N/A Fog Fog
6:24 AM 44.6 °F 41.4 °F 42.8 °F 93% 29.98 in 0.2 mi WNW 5.8 mph - N/A Fog Fog
6:32 AM 44.6 °F - 42.8 °F 93% 29.99 in 0.5 mi Calm Calm - N/A Fog Fog
6:37 AM 44.6 °F - 42.8 °F 93% 29.99 in 1.8 mi Calm Calm - N/A   Overcast
6:39 AM 44.6 °F - 42.8 °F 93% 29.99 in 3.0 mi Calm Calm - N/A   Overcast
6:52 AM 44.6 °F 42.2 °F 42.8 °F 93% 29.98 in 1.5 mi West 4.6 mph - N/A   Overcast
6:54 AM 44.6 °F - 42.8 °F 93% 29.99 in 0.8 mi Calm Calm - N/A   Overcast
6:56 AM 45.0 °F 43.5 °F 44.1 °F 97% 29.94 in 0.2 mi West 3.5 mph - N/A Fog Fog
7:14 AM 44.6 °F 43.1 °F 42.8 °F 93% 29.99 in 1.5 mi WSW 3.5 mph - 0.00 in Rain Light Rain
7:21 AM 44.6 °F 43.1 °F 42.8 °F 93% 30.00 in 10.0 mi West 3.5 mph - 0.00 in Rain Light Rain
7:56 AM 46.0 °F - 44.1 °F 93% 29.96 in 0.8 mi Calm Calm - 0.00 in Rain Light Rain
8:14 AM 46.4 °F 44.3 °F 44.6 °F 93% 30.00 in 0.2 mi SSW 4.6 mph - 0.01 in Fog , Rain Light Rain
8:26 AM 46.4 °F 44.3 °F 44.6 °F 93% 30.00 in 0.5 mi SW 4.6 mph - 0.01 in Fog , Rain Light Rain
8:29 AM 46.4 °F 44.3 °F 44.6 °F 93% 30.00 in 2.5 mi WSW 4.6 mph - 0.01 in   Mostly Cloudy
8:34 AM 46.4 °F - 44.6 °F 93% 30.00 in 4.0 mi Calm Calm - 0.01 in Rain Light Rain
8:36 AM 46.4 °F - 44.6 °F 93% 30.00 in 1.0 mi Calm Calm - 0.01 in Rain Light Rain
8:38 AM 46.4 °F 44.3 °F 44.6 °F 93% 30.00 in 0.8 mi South 4.6 mph - 0.01 in Rain Light Rain
8:46 AM 46.4 °F 45.2 °F 46.4 °F 100% 30.00 in 0.2 mi Variable 3.5 mph - 0.01 in Fog , Rain Light Rain
8:56 AM 46.9 °F - 46.0 °F 97% 29.97 in 0.2 mi SSE 3.5 mph - 0.01 in Fog , Rain Light Rain
9:03 AM 46.4 °F - 46.4 °F 100% 30.01 in 0.2 mi Calm Calm - 0.00 in Fog , Rain Light Rain
9:10 AM 46.4 °F - 46.4 °F 100% 30.01 in 0.2 mi Calm Calm - 0.00 in Fog , Rain Light Rain
9:33 AM 48.2 °F - 46.4 °F 93% 30.01 in 1.2 mi WSW 3.5 mph - 0.00 in Rain Light Rain
9:36 AM 48.2 °F - 46.4 °F 93% 30.01 in 4.0 mi SW 3.5 mph - 0.00 in Rain Light Rain
9:56 AM 48.9 °F - 48.0 °F 97% 29.98 in 10.0 mi Variable 4.6 mph - 0.00 in   Mostly Cloudy
10:16 AM 48.2 °F - 48.2 °F 100% 30.01 in 1.5 mi Variable 4.6 mph - N/A   Mostly Cloudy
10:20 AM 50.0 °F - 48.2 °F 94% 30.01 in 0.8 mi South 4.6 mph - N/A   Mostly Cloudy
10:30 AM 48.2 °F - 46.4 °F 93% 30.01 in 1.8 mi Variable 4.6 mph - N/A   Mostly Cloudy
10:32 AM 48.2 °F - 46.4 °F 93% 30.02 in 5.0 mi Calm Calm - N/A   Mostly Cloudy
10:56 AM 51.1 °F - 46.9 °F 86% 29.99 in 9.0 mi South 3.5 mph - N/A   Mostly Cloudy
11:03 AM 51.8 °F - 46.4 °F 82% 30.02 in 10.0 mi Variable 4.6 mph - N/A   Mostly Cloudy
11:30 AM 53.6 °F - 48.2 °F 82% 30.03 in 10.0 mi Calm Calm - N/A   Overcast
11:37 AM 51.8 °F - 46.4 °F 82% 30.03 in 10.0 mi SSW 4.6 mph - N/A   Overcast
11:56 AM 53.1 °F - 46.9 °F 80% 29.98 in 10.0 mi Variable 3.5 mph - N/A   Overcast
12:30 PM 51.8 °F - 46.4 °F 82% 30.03 in 10.0 mi Calm Calm - N/A   Overcast
12:56 PM 53.1 °F - 46.9 °F 80% 29.99 in 10.0 mi Calm Calm - N/A   Overcast
1:17 PM 53.6 °F - 48.2 °F 82% 30.03 in 10.0 mi Calm Calm - N/A   Mostly Cloudy
1:30 PM 55.4 °F - 46.4 °F 72% 30.03 in 10.0 mi Calm Calm - N/A   Scattered Clouds
1:56 PM 57.0 °F - 46.9 °F 69% 29.97 in 10.0 mi NNW 4.6 mph - N/A   Scattered Clouds
2:56 PM 57.9 °F - 48.0 °F 70% 29.97 in 10.0 mi Calm Calm - N/A   Partly Cloudy
3:56 PM 62.1 °F - 50.0 °F 65% 29.95 in 10.0 mi Calm Calm - 0.00 in   Clear
4:56 PM 61.0 °F - 51.1 °F 70% 29.96 in 10.0 mi Calm Calm - N/A   Mostly Cloudy
5:56 PM 60.1 °F - 51.1 °F 72% 29.97 in 10.0 mi WSW 4.6 mph - N/A   Partly Cloudy
6:56 PM 57.9 °F - 48.9 °F 72% 29.96 in 10.0 mi SSW 5.8 mph - N/A   Partly Cloudy
7:56 PM 55.9 °F - 48.0 °F 75% 29.99 in 10.0 mi Calm Calm - N/A   Mostly Cloudy
8:08 PM 55.4 °F - 46.4 °F 72% 30.04 in 10.0 mi SSW 3.5 mph - N/A   Mostly Cloudy
8:18 PM 57.2 °F - 48.2 °F 72% 30.04 in 10.0 mi Calm Calm - N/A   Overcast
8:56 PM 54.0 °F - 46.9 °F 77% 29.99 in 10.0 mi South 5.8 mph - N/A   Mostly Cloudy
9:13 PM 53.6 °F - 46.4 °F 77% 30.04 in 10.0 mi NNE 3.5 mph - N/A   Scattered Clouds
9:37 PM 53.6 °F - 46.4 °F 77% 30.05 in 10.0 mi North 3.5 mph - N/A   Mostly Cloudy
9:45 PM 53.6 °F - 46.4 °F 77% 30.05 in 10.0 mi NNW 4.6 mph - N/A   Scattered Clouds
9:56 PM 53.1 °F - 46.9 °F 80% 30.01 in 10.0 mi Calm Calm - N/A   Partly Cloudy
10:56 PM 51.1 °F - 46.9 °F 86% 30.02 in 10.0 mi NW 4.6 mph - N/A   Clear
11:56 PM 51.1 °F - 46.0 °F 83% 30.02 in 10.0 mi NW 3.5 mph - N/A   Scattered Clouds